| time (UTC) | temp C | wind direction | speed KPH | gust KPH | rain 1hr cm | rain 24hr cm | rain mn cm | humidity % | barometer mb |
| 20260906070549 | 22 | 153 | 3.2 | 11.3 | 0.00 | 0.00 | 0.00 | 86 | 1015.2 |
| 20260906070049 | 22 | 161 | 4.8 | 14.5 | 0.00 | 0.00 | 0.00 | 86 | 1015.1 |
| 20260906065548 | 22 | 185 | 6.4 | 14.5 | 0.00 | 0.00 | 0.00 | 86 | 1015.0 |
| 20260906065047 | 22 | 150 | 3.2 | 14.5 | 0.00 | 0.00 | 0.00 | 86 | 1014.9 |
| 20260906064547 | 23 | 181 | 4.8 | 14.5 | 0.00 | 0.00 | 0.00 | 86 | 1015.0 |
| 20260906064046 | 23 | 122 | 6.4 | 16.1 | 0.00 | 0.00 | 0.00 | 86 | 1015.1 |
| 20260906063545 | 23 | 151 | 6.4 | 16.1 | 0.00 | 0.00 | 0.00 | 85 | 1015.1 |
| 20260906063049 | 23 | 155 | 3.2 | 19.3 | 0.00 | 0.00 | 0.00 | 85 | 1015.1 |
| 20260906062545 | 23 | 154 | 4.8 | 16.1 | 0.00 | 0.00 | 0.00 | 85 | 1015.2 |
| 20260906062045 | 23 | 166 | 4.8 | 16.1 | 0.00 | 0.00 | 0.00 | 85 | 1015.1 |
| 20260906061545 | 23 | 185 | 4.8 | 12.9 | 0.00 | 0.00 | 0.00 | 86 | 1015.1 |
| 20260906061047 | 23 | 159 | 4.8 | 14.5 | 0.00 | 0.00 | 0.00 | 86 | 1015.1 |
| 20260906060544 | 23 | 127 | 6.4 | 14.5 | 0.00 | 0.00 | 0.00 | 86 | 1015.1 |
| 20260906060043 | 23 | 95 | 4.8 | 14.5 | 0.00 | 0.00 | 0.00 | 86 | 1015.0 |
| 20260906055543 | 23 | 150 | 3.2 | 14.5 | 0.00 | 0.00 | 0.00 | 86 | 1015.1 |
| 20260906055044 | 23 | 138 | 4.8 | 16.1 | 0.00 | 0.00 | 0.00 | 86 | 1015.3 |
| 20260906054544 | 23 | 94 | 3.2 | 16.1 | 0.00 | 0.00 | 0.00 | 86 | 1015.2 |
| 20260906054042 | 23 | 95 | 3.2 | 14.5 | 0.00 | 0.00 | 0.00 | 87 | 1015.1 |
| 20260906053541 | 22 | 117 | 6.4 | 14.5 | 0.00 | 0.00 | 0.00 | 87 | 1015.1 |
| 20260906053041 | 22 | 93 | 4.8 | 11.3 | 0.00 | 0.00 | 0.00 | 87 | 1015.1 |
| 20260906052541 | 22 | 82 | 4.8 | 12.9 | 0.00 | 0.00 | 0.00 | 87 | 1015.1 |
| 20260906052040 | 22 | 120 | 4.8 | 12.9 | 0.00 | 0.00 | 0.00 | 87 | 1015.2 |
| 20260906051553 | 23 | 104 | 3.2 | 9.7 | 0.00 | 0.00 | 0.00 | 87 | 1015.3 |
| 20260906051038 | 23 | 85 | 3.2 | 11.3 | 0.00 | 0.00 | 0.00 | 87 | 1015.4 |
| 20260906050537 | 23 | 60 | 4.8 | 12.9 | 0.00 | 0.00 | 0.00 | 87 | 1015.3 |
| 20260906050041 | 23 | 146 | 3.2 | 12.9 | 0.00 | 0.00 | 0.00 | 86 | 1015.4 |
| 20260906045537 | 23 | 96 | 3.2 | 11.3 | 0.00 | 0.00 | 0.00 | 86 | 1015.5 |
| 20260906045036 | 23 | 115 | 1.6 | 12.9 | 0.00 | 0.00 | 0.00 | 86 | 1015.5 |
| 20260906044544 | 23 | 116 | 4.8 | 12.9 | 0.00 | 0.00 | 0.00 | 86 | 1015.4 |
| 20260906044037 | 23 | 82 | 3.2 | 11.3 | 0.00 | 0.00 | 0.00 | 86 | 1015.4 |
| 20260906043537 | 23 | 45 | 3.2 | 14.5 | 0.00 | 0.00 | 0.00 | 86 | 1015.3 |
| 20260906043046 | 23 | 149 | 4.8 | 14.5 | 0.00 | 0.00 | 0.00 | 86 | 1015.2 |
| 20260906042535 | 23 | 102 | 4.8 | 14.5 | 0.00 | 0.00 | 0.00 | 86 | 1015.4 |
| 20260906042035 | 23 | 98 | 6.4 | 16.1 | 0.00 | 0.00 | 0.00 | 86 | 1015.5 |
| 20260906041535 | 23 | 96 | 8.0 | 16.1 | 0.00 | 0.00 | 0.00 | 85 | 1015.5 |
| 20260906041036 | 23 | 121 | 4.8 | 11.3 | 0.00 | 0.00 | 0.00 | 85 | 1015.6 |
| 20260906040534 | 23 | 94 | 4.8 | 17.7 | 0.00 | 0.00 | 0.00 | 85 | 1015.6 |
| 20260906040037 | 23 | 81 | 6.4 | 17.7 | 0.00 | 0.00 | 0.00 | 85 | 1015.4 |
| 20260906035539 | 23 | 92 | 4.8 | 14.5 | 0.00 | 0.00 | 0.00 | 84 | 1015.3 |
| 20260906035034 | 24 | 94 | 6.4 | 14.5 | 0.00 | 0.00 | 0.00 | 84 | 1015.5 |
| 20260906034538 | 24 | 90 | 1.6 | 9.7 | 0.00 | 0.00 | 0.00 | 84 | 1015.6 |
| 20260906034034 | 24 | 78 | 1.6 | 9.7 | 0.00 | 0.00 | 0.00 | 84 | 1015.7 |
| 20260906033534 | 24 | 89 | 3.2 | 12.9 | 0.00 | 0.00 | 0.00 | 84 | 1015.8 |
| 20260906033033 | 24 | 49 | 3.2 | 12.9 | 0.00 | 0.00 | 0.00 | 84 | 1015.8 |
| 20260906032534 | 24 | 91 | 4.8 | 9.7 | 0.00 | 0.00 | 0.00 | 84 | 1015.7 |
| 20260906032033 | 24 | 98 | 1.6 | 9.7 | 0.00 | 0.00 | 0.00 | 84 | 1015.7 |
| 20260906031539 | 24 | 86 | 3.2 | 9.7 | 0.00 | 0.00 | 0.00 | 84 | 1015.8 |
| 20260906031033 | 24 | 63 | 3.2 | 9.7 | 0.00 | 0.00 | 0.00 | 84 | 1015.8 |
| 20260906030535 | 24 | 93 | 4.8 | 9.7 | 0.00 | 0.00 | 0.00 | 84 | 1016.0 |
| 20260906030033 | 24 | 67 | 1.6 | 9.7 | 0.00 | 0.00 | 0.00 | 84 | 1015.9 |
| 20260906025532 | 24 | 80 | 3.2 | 9.7 | 0.00 | 0.00 | 0.00 | 84 | 1015.9 |
| 20260906025032 | 24 | 95 | 1.6 | 6.4 | 0.00 | 0.00 | 0.00 | 83 | 1016.0 |
| 20260906024531 | 24 | 78 | 1.6 | 6.4 | 0.00 | 0.00 | 0.00 | 83 | 1015.9 |
| 20260906024031 | 24 | 123 | 0.0 | 8.0 | 0.00 | 0.00 | 0.00 | 83 | 1015.8 |
| 20260906023531 | 24 | 90 | 1.6 | 8.0 | 0.00 | 0.00 | 0.00 | 83 | 1015.6 |
| 20260906023031 | 24 | 142 | 3.2 | 9.7 | 0.00 | 0.00 | 0.00 | 83 | 1015.4 |
| 20260906022532 | 24 | 125 | 1.6 | 6.4 | 0.00 | 0.00 | 0.00 | 83 | 1015.3 |
| 20260906022030 | 24 | 123 | 1.6 | 6.4 | 0.00 | 0.00 | 0.00 | 82 | 1015.3 |
| 20260906021530 | 24 | 61 | 1.6 | 8.0 | 0.00 | 0.00 | 0.00 | 82 | 1015.3 |
| 20260906021030 | 25 | 109 | 3.2 | 8.0 | 0.00 | 0.00 | 0.00 | 81 | 1015.2 |
| 20260906020530 | 25 | 125 | 3.2 | 9.7 | 0.00 | 0.00 | 0.00 | 81 | 1015.1 |
| 20260906020030 | 25 | 153 | 3.2 | 8.0 | 0.00 | 0.00 | 0.00 | 81 | 1014.9 |
| 20260906015530 | 25 | 147 | 3.2 | 11.3 | 0.00 | 0.00 | 0.00 | 80 | 1014.8 |
| 20260906015029 | 25 | 85 | 4.8 | 12.9 | 0.00 | 0.00 | 0.00 | 80 | 1014.7 |
| 20260906014530 | 25 | 118 | 4.8 | 12.9 | 0.00 | 0.00 | 0.00 | 80 | 1014.7 |
| 20260906014028 | 25 | 111 | 4.8 | 11.3 | 0.00 | 0.00 | 0.00 | 79 | 1014.8 |
| 20260906013528 | 25 | 119 | 3.2 | 11.3 | 0.00 | 0.00 | 0.00 | 78 | 1014.8 |
| 20260906013042 | 25 | 102 | 4.8 | 12.9 | 0.00 | 0.00 | 0.00 | 78 | 1014.7 |
| 20260906012529 | 25 | 138 | 6.4 | 12.9 | 0.00 | 0.00 | 0.00 | 78 | 1014.8 |
| 20260906012028 | 25 | 89 | 3.2 | 9.7 | 0.00 | 0.00 | 0.00 | 77 | 1014.7 |
| 20260906011528 | 26 | 146 | 3.2 | 9.7 | 0.00 | 0.00 | 0.00 | 76 | 1014.6 |
| 20260906011030 | 26 | 113 | 4.8 | 9.7 | 0.00 | 0.00 | 0.00 | 76 | 1014.6 |
| 20260906010528 | 26 | 115 | 4.8 | 11.3 | 0.00 | 0.00 | 0.00 | 75 | 1014.6 |
| 20260906010030 | 26 | 125 | 3.2 | 11.3 | 0.00 | 0.00 | 0.00 | 75 | 1014.7 |
| 20260906005527 | 26 | 142 | 1.6 | 9.7 | 0.00 | 0.00 | 0.00 | 74 | 1014.8 |
| 20260906005027 | 26 | 101 | 1.6 | 9.7 | 0.00 | 0.00 | 0.00 | 73 | 1014.9 |
| 20260906004527 | 26 | 62 | 1.6 | 11.3 | 0.00 | 0.00 | 0.00 | 73 | 1014.9 |
| 20260906004026 | 26 | 137 | 1.6 | 16.1 | 0.00 | 0.00 | 0.00 | 72 | 1014.9 |
| 20260906003526 | 27 | 159 | 6.4 | 16.1 | 0.00 | 0.00 | 0.00 | 71 | 1014.7 |
| 20260906003027 | 27 | 136 | 6.4 | 16.1 | 0.00 | 0.00 | 0.00 | 71 | 1014.5 |
| 20260906002526 | 27 | 164 | 8.0 | 19.3 | 0.00 | 0.00 | 0.00 | 71 | 1014.6 |
| 20260906002026 | 27 | 143 | 8.0 | 19.3 | 0.00 | 0.00 | 0.00 | 70 | 1014.6 |
| 20260906001527 | 27 | 162 | 6.4 | 19.3 | 0.00 | 0.00 | 0.00 | 70 | 1014.6 |
| 20260906001026 | 27 | 139 | 6.4 | 16.1 | 0.00 | 0.00 | 0.00 | 69 | 1014.6 |
| 20260906000526 | 27 | 167 | 9.7 | 17.7 | 0.00 | 0.00 | 0.00 | 69 | 1014.6 |
| 20260906000026 | 28 | 165 | 6.4 | 24.1 | 0.00 | 0.00 | 0.00 | 68 | 1014.4 |
| 20260905235526 | 28 | 85 | 8.0 | 24.1 | 0.00 | 0.00 | 0.00 | 68 | 1014.1 |
| 20260905235026 | 28 | 141 | 9.7 | 22.5 | 0.00 | 0.00 | 0.00 | 68 | 1013.9 |
| 20260905234524 | 28 | 103 | 6.4 | 22.5 | 0.00 | 0.00 | 0.00 | 68 | 1013.7 |
| 20260905234025 | 28 | 64 | 8.0 | 22.5 | 0.00 | 0.00 | 0.00 | 67 | 1013.5 |
| 20260905233526 | 28 | 113 | 9.7 | 22.5 | 0.00 | 0.00 | 0.00 | 67 | 1013.5 |
| 20260905233026 | 28 | 53 | 9.7 | 19.3 | 0.00 | 0.00 | 0.00 | 67 | 1013.4 |
| 20260905232524 | 28 | 101 | 8.0 | 20.9 | 0.00 | 0.00 | 0.00 | 67 | 1013.5 |
| 20260905232024 | 28 | 115 | 8.0 | 20.9 | 0.00 | 0.00 | 0.00 | 67 | 1013.4 |
| 20260905231528 | 28 | 81 | 9.7 | 19.3 | 0.00 | 0.00 | 0.00 | 66 | 1013.3 |
| 20260905231025 | 28 | 62 | 8.0 | 19.3 | 0.00 | 0.00 | 0.00 | 66 | 1013.3 |
| 20260905230525 | 28 | 50 | 8.0 | 22.5 | 0.00 | 0.00 | 0.00 | 65 | 1013.3 |
| 20260905230026 | 28 | 78 | 11.3 | 22.5 | 0.00 | 0.00 | 0.00 | 65 | 1013.3 |
| 20260905225524 | 28 | 42 | 6.4 | 19.3 | 0.00 | 0.00 | 0.00 | 64 | 1013.2 |
| 20260905225023 | 28 | 93 | 8.0 | 19.3 | 0.00 | 0.00 | 0.00 | 64 | 1013.2 |
| 20260905224523 | 28 | 32 | 8.0 | 22.5 | 0.00 | 0.00 | 0.00 | 64 | 1013.2 |
| 20260905224023 | 29 | 56 | 4.8 | 22.5 | 0.00 | 0.00 | 0.00 | 63 | 1013.2 |
| 20260905223522 | 29 | 88 | 6.4 | 22.5 | 0.00 | 0.00 | 0.00 | 63 | 1013.1 |
| 20260905223022 | 29 | 88 | 8.0 | 20.9 | 0.00 | 0.00 | 0.00 | 63 | 1013.2 |
| 20260905222525 | 29 | 107 | 6.4 | 16.1 | 0.00 | 0.00 | 0.00 | 66 | 1013.1 |
| 20260905222022 | 28 | 115 | 8.0 | 22.5 | 0.00 | 0.00 | 0.00 | 66 | 1013.1 |
| 20260905221520 | 28 | 88 | 8.0 | 22.5 | 0.00 | 0.00 | 0.00 | 66 | 1013.1 |
| 20260905221020 | 28 | 83 | 12.9 | 22.5 | 0.00 | 0.00 | 0.00 | 66 | 1013.1 |
| 20260905220519 | 28 | 76 | 11.3 | 22.5 | 0.00 | 0.00 | 0.00 | 66 | 1013.2 |
| 20260905220018 | 28 | 51 | 11.3 | 24.1 | 0.00 | 0.00 | 0.00 | 66 | 1013.2 |
| 20260905215519 | 28 | 123 | 14.5 | 24.1 | 0.00 | 0.00 | 0.00 | 66 | 1013.3 |
| 20260905215018 | 28 | 91 | 11.3 | 22.5 | 0.00 | 0.00 | 0.00 | 66 | 1013.3 |
| 20260905214517 | 28 | 57 | 11.3 | 25.7 | 0.00 | 0.00 | 0.00 | 66 | 1013.4 |
| 20260905214016 | 28 | 97 | 12.9 | 22.5 | 0.00 | 0.00 | 0.00 | 66 | 1013.5 |
| 20260905213520 | 28 | 86 | 12.9 | 22.5 | 0.00 | 0.00 | 0.00 | 66 | 1013.5 |
| 20260905213018 | 28 | 96 | 12.9 | 25.7 | 0.00 | 0.00 | 0.00 | 65 | 1013.6 |
| 20260905212515 | 28 | 101 | 14.5 | 25.7 | 0.00 | 0.00 | 0.00 | 66 | 1013.7 |
| 20260905212014 | 28 | 150 | 12.9 | 25.7 | 0.00 | 0.00 | 0.00 | 66 | 1013.7 |
| 20260905211516 | 28 | 71 | 12.9 | 20.9 | 0.00 | 0.00 | 0.00 | 67 | 1013.8 |
| 20260905211014 | 28 | 84 | 8.0 | 22.5 | 0.00 | 0.00 | 0.00 | 67 | 1013.8 |
| 20260905210514 | 28 | 82 | 14.5 | 24.1 | 0.00 | 0.00 | 0.00 | 67 | 1013.9 |
| 20260905210017 | 28 | 81 | 9.7 | 29.0 | 0.00 | 0.00 | 0.00 | 68 | 1014.1 |
| 20260905205514 | 28 | 73 | 12.9 | 29.0 | 0.00 | 0.00 | 0.00 | 67 | 1014.0 |
| 20260905205015 | 28 | 61 | 11.3 | 24.1 | 0.00 | 0.00 | 0.00 | 67 | 1014.0 |
| 20260905204512 | 27 | 88 | 9.7 | 25.7 | 0.00 | 0.00 | 0.00 | 67 | 1014.0 |
| 20260905204013 | 28 | 83 | 14.5 | 29.0 | 0.00 | 0.00 | 0.00 | 67 | 1014.2 |
| 20260905203512 | 28 | 56 | 16.1 | 29.0 | 0.00 | 0.00 | 0.00 | 66 | 1014.3 |
| 20260905203012 | 28 | 74 | 14.5 | 20.9 | 0.00 | 0.00 | 0.00 | 67 | 1014.3 |
| 20260905202511 | 27 | 63 | 11.3 | 29.0 | 0.00 | 0.00 | 0.00 | 68 | 1014.3 |
| 20260905202013 | 27 | 157 | 16.1 | 30.6 | 0.00 | 0.00 | 0.00 | 69 | 1014.4 |
| 20260905201512 | 27 | 100 | 17.7 | 30.6 | 0.00 | 0.00 | 0.00 | 69 | 1014.7 |
| 20260905201011 | 27 | 105 | 16.1 | 30.6 | 0.00 | 0.00 | 0.00 | 69 | 1014.7 |
| 20260905200511 | 27 | 77 | 16.1 | 27.4 | 0.00 | 0.00 | 0.00 | 69 | 1014.9 |
| 20260905200010 | 27 | 97 | 11.3 | 29.0 | 0.00 | 0.00 | 0.00 | 69 | 1015.0 |
| 20260905195511 | 27 | 112 | 17.7 | 29.0 | 0.00 | 0.00 | 0.00 | 70 | 1015.0 |
| 20260905195011 | 27 | 94 | 14.5 | 27.4 | 0.00 | 0.00 | 0.00 | 70 | 1014.9 |
| 20260905194510 | 27 | 85 | 17.7 | 32.2 | 0.00 | 0.00 | 0.00 | 69 | 1014.9 |
| 20260905194010 | 27 | 40 | 11.3 | 24.1 | 0.00 | 0.00 | 0.00 | 70 | 1015.2 |
| 20260905193509 | 27 | 78 | 12.9 | 30.6 | 0.00 | 0.00 | 0.00 | 70 | 1015.2 |
| 20260905193009 | 26 | 79 | 17.7 | 30.6 | 0.00 | 0.00 | 0.00 | 71 | 1015.3 |
| 20260905192509 | 26 | 91 | 16.1 | 30.6 | 0.00 | 0.00 | 0.00 | 71 | 1015.4 |
| 20260905192009 | 26 | 77 | 12.9 | 27.4 | 0.00 | 0.00 | 0.00 | 71 | 1015.5 |
| 20260905191509 | 26 | 61 | 12.9 | 25.7 | 0.00 | 0.00 | 0.00 | 71 | 1015.4 |
| 20260905191009 | 26 | 61 | 14.5 | 29.0 | 0.00 | 0.00 | 0.00 | 72 | 1015.5 |
| 20260905190508 | 26 | 69 | 14.5 | 33.8 | 0.00 | 0.00 | 0.00 | 72 | 1015.7 |
| 20260905190009 | 25 | 36 | 14.5 | 33.8 | 0.00 | 0.00 | 0.00 | 73 | 1015.8 |
| 20260905185507 | 26 | 54 | 12.9 | 29.0 | 0.00 | 0.00 | 0.00 | 73 | 1016.0 |
| 20260905185010 | 25 | 59 | 14.5 | 29.0 | 0.00 | 0.00 | 0.00 | 73 | 1016.2 |
| 20260905184510 | 25 | 15 | 12.9 | 27.4 | 0.00 | 0.00 | 0.00 | 73 | 1016.2 |
| 20260905184006 | 25 | 59 | 11.3 | 27.4 | 0.00 | 0.00 | 0.00 | 73 | 1016.3 |
| 20260905183506 | 25 | 110 | 12.9 | 27.4 | 0.00 | 0.00 | 0.00 | 73 | 1016.3 |
| 20260905183007 | 25 | 42 | 16.1 | 35.4 | 0.00 | 0.00 | 0.00 | 72 | 1016.4 |
| 20260905182506 | 26 | 13 | 14.5 | 35.4 | 0.00 | 0.00 | 0.00 | 72 | 1016.4 |
| 20260905182008 | 26 | 29 | 14.5 | 29.0 | 0.00 | 0.00 | 0.00 | 72 | 1016.4 |
| 20260905181505 | 26 | 13 | 17.7 | 29.0 | 0.00 | 0.00 | 0.00 | 72 | 1016.3 |
| 20260905181007 | 26 | 30 | 17.7 | 29.0 | 0.00 | 0.00 | 0.00 | 70 | 1016.3 |
| 20260905180506 | 27 | 344 | 9.7 | 27.4 | 0.00 | 0.00 | 0.00 | 70 | 1016.3 |
| 20260905180004 | 27 | 34 | 12.9 | 30.6 | 0.00 | 0.00 | 0.00 | 68 | 1016.4 |
| 20260905175504 | 28 | 5 | 12.9 | 30.6 | 0.00 | 0.00 | 0.00 | 67 | 1016.3 |
| 20260905175003 | 28 | 30 | 12.9 | 19.3 | 0.00 | 0.00 | 0.00 | 66 | 1016.4 |
| 20260905174508 | 28 | 327 | 8.0 | 17.7 | 0.00 | 0.00 | 0.00 | 67 | 1016.5 |
| 20260905174002 | 28 | 115 | 4.8 | 16.1 | 0.00 | 0.00 | 0.00 | 66 | 1016.6 |
| 20260905173501 | 28 | 27 | 4.8 | 16.1 | 0.00 | 0.00 | 0.00 | 66 | 1016.4 |
| 20260905173101 | 28 | 337 | 6.4 | 16.1 | 0.00 | 0.00 | 0.00 | 67 | 1016.6 |
| 20260905172559 | 28 | 17 | 3.2 | 14.5 | 0.00 | 0.00 | 0.00 | 68 | 1016.5 |
| 20260905172059 | 28 | 321 | 4.8 | 12.9 | 0.00 | 0.00 | 0.00 | 67 | 1016.4 |
| 20260905171633 | 28 | 271 | 4.8 | 9.7 | 0.00 | 0.00 | 0.00 | 67 | 1016.3 |
| 20260905171057 | 28 | 303 | 0.0 | 4.8 | 0.00 | 0.00 | 0.00 | 68 | 1016.2 |
| 20260905170555 | 28 | 303 | 1.6 | 4.8 | 0.00 | 0.00 | 0.00 | 69 | 1016.1 |
| 20260905165552 | 27 | 162 | 0.0 | 6.4 | 0.00 | 0.00 | 0.00 | 70 | 1016.2 |
| 20260905165051 | 27 | 159 | 1.6 | 8.0 | 0.00 | 0.00 | 0.00 | 69 | 1016.1 |
| 20260905164551 | 27 | 205 | 3.2 | 11.3 | 0.00 | 0.00 | 0.00 | 70 | 1016.1 |
| 20260905164047 | 27 | 180 | 3.2 | 11.3 | 0.00 | 0.00 | 0.00 | 72 | 1015.9 |
| 20260905163546 | 26 | 178 | 3.2 | 11.3 | 0.00 | 0.00 | 0.00 | 73 | 1016.0 |
| 20260905163052 | 26 | 161 | 3.2 | 11.3 | 0.00 | 0.00 | 0.00 | 73 | 1016.0 |
| 20260905162543 | 26 | 174 | 4.8 | 17.7 | 0.00 | 0.00 | 0.00 | 74 | 1015.9 |
| 20260905162042 | 26 | 187 | 8.0 | 17.7 | 0.00 | 0.00 | 0.00 | 74 | 1015.9 |
| 20260905161540 | 26 | 185 | 8.0 | 14.5 | 0.00 | 0.00 | 0.00 | 75 | 1015.9 |
| 20260905161039 | 25 | 216 | 6.4 | 19.3 | 0.00 | 0.00 | 0.00 | 77 | 1015.9 |
| 20260905160537 | 25 | 163 | 8.0 | 20.9 | 0.00 | 0.00 | 0.00 | 78 | 1016.0 |
| 20260905160036 | 24 | 201 | 8.0 | 19.3 | 0.00 | 0.00 | 0.00 | 79 | 1016.1 |
| 20260905155534 | 24 | 168 | 11.3 | 24.1 | 0.00 | 0.00 | 0.00 | 79 | 1015.9 |
| 20260905155032 | 23 | 174 | 11.3 | 24.1 | 0.00 | 0.00 | 0.00 | 80 | 1015.8 |
| 20260905154531 | 23 | 165 | 9.7 | 24.1 | 0.00 | 0.00 | 0.00 | 80 | 1015.9 |
| 20260905154030 | 23 | 138 | 11.3 | 22.5 | 0.00 | 0.00 | 0.00 | 81 | 1015.8 |
| 20260905153529 | 23 | 116 | 8.0 | 29.0 | 0.00 | 0.00 | 0.00 | 83 | 1016.0 |
| 20260905153028 | 22 | 146 | 14.5 | 29.0 | 0.00 | 0.00 | 0.00 | 84 | 1015.8 |
| 20260905152526 | 21 | 162 | 14.5 | 25.7 | 0.00 | 0.00 | 0.00 | 85 | 1015.9 |
| 20260905152024 | 21 | 153 | 11.3 | 19.3 | 0.00 | 0.00 | 0.00 | 85 | 1015.7 |
| 20260905151524 | 21 | 161 | 9.7 | 17.7 | 0.00 | 0.00 | 0.00 | 85 | 1015.8 |
| 20260905151022 | 21 | 135 | 6.4 | 20.9 | 0.00 | 0.00 | 0.00 | 86 | 1015.7 |
| 20260905150525 | 21 | 126 | 9.7 | 20.9 | 0.00 | 0.00 | 0.00 | 86 | 1015.6 |
| 20260905150033 | 21 | 162 | 4.8 | 22.5 | 0.00 | 0.00 | 0.00 | 86 | 1015.6 |
| 20260905145525 | 21 | 168 | 8.0 | 25.7 | 0.00 | 0.00 | 0.00 | 86 | 1015.7 |
| 20260905145021 | 21 | 76 | 9.7 | 25.7 | 0.00 | 0.00 | 0.00 | 86 | 1015.7 |
| 20260905144519 | 21 | 193 | 9.7 | 22.5 | 0.00 | 0.00 | 0.00 | 86 | 1015.8 |
| 20260905144020 | 21 | 163 | 12.9 | 25.7 | 0.00 | 0.00 | 0.00 | 87 | 1015.9 |
| 20260905143519 | 21 | 150 | 9.7 | 25.7 | 0.00 | 0.00 | 0.00 | 88 | 1015.9 |
| 20260905143018 | 20 | 145 | 6.4 | 19.3 | 0.00 | 0.00 | 0.00 | 88 | 1016.0 |
| 20260905142516 | 20 | 123 | 8.0 | 19.3 | 0.00 | 0.00 | 0.00 | 89 | 1015.9 |
| 20260905142020 | 20 | 154 | 6.4 | 17.7 | 0.00 | 0.00 | 0.00 | 90 | 1015.9 |
| 20260905141516 | 20 | 148 | 8.0 | 17.7 | 0.00 | 0.00 | 0.00 | 90 | 1015.8 |
| 20260905141015 | 20 | 173 | 4.8 | 17.7 | 0.00 | 0.00 | 0.00 | 91 | 1015.8 |
| 20260905140516 | 20 | 175 | 6.4 | 16.1 | 0.00 | 0.00 | 0.00 | 92 | 1015.7 |
| 20260905140015 | 19 | 136 | 4.8 | 16.1 | 0.00 | 0.00 | 0.00 | 93 | 1015.8 |
| 20260905135513 | 19 | 145 | 4.8 | 11.3 | 0.00 | 0.00 | 0.00 | 93 | 1015.8 |
| 20260905135014 | 18 | 137 | 4.8 | 11.3 | 0.00 | 0.00 | 0.00 | 94 | 1015.7 |
| 20260905134514 | 18 | 164 | 4.8 | 14.5 | 0.00 | 0.00 | 0.00 | 94 | 1015.6 |
| 20260905134010 | 18 | 140 | 6.4 | 14.5 | 0.00 | 0.00 | 0.00 | 94 | 1015.7 |
| 20260905133510 | 18 | 153 | 4.8 | 14.5 | 0.00 | 0.00 | 0.00 | 94 | 1015.7 |
| 20260905133009 | 18 | 100 | 6.4 | 12.9 | 0.00 | 0.00 | 0.00 | 94 | 1015.8 |
| 20260905132509 | 18 | 147 | 6.4 | 12.9 | 0.00 | 0.00 | 0.00 | 94 | 1015.8 |
| 20260905132007 | 18 | 137 | 3.2 | 12.9 | 0.00 | 0.00 | 0.00 | 94 | 1015.7 |
| 20260905131514 | 18 | 135 | 3.2 | 6.4 | 0.00 | 0.00 | 0.00 | 95 | 1015.7 |
| 20260905131006 | 18 | 86 | 1.6 | 12.9 | 0.00 | 0.00 | 0.00 | 95 | 1015.9 |
| 20260905130506 | 18 | 97 | 4.8 | 12.9 | 0.00 | 0.00 | 0.00 | 95 | 1015.7 |
| 20260905130004 | 18 | 78 | 1.6 | 9.7 | 0.00 | 0.00 | 0.00 | 95 | 1015.8 |
| 20260905125504 | 18 | 119 | 3.2 | 9.7 | 0.00 | 0.00 | 0.00 | 95 | 1016.1 |
| 20260905125001 | 18 | 69 | 1.6 | 9.7 | 0.00 | 0.00 | 0.00 | 95 | 1016.0 |
| 20260905124601 | 18 | 91 | 1.6 | 11.3 | 0.00 | 0.00 | 0.00 | 95 | 1015.7 |
| 20260905124059 | 18 | 154 | 4.8 | 12.9 | 0.00 | 0.00 | 0.00 | 95 | 1015.4 |
| 20260905124001 | 18 | 136 | 3.2 | 12.9 | 0.00 | 0.00 | 0.00 | 95 | 1015.4 |
| 20260905123559 | 18 | 149 | 3.2 | 12.9 | 0.00 | 0.00 | 0.00 | 95 | 1015.3 |
| 20260905123102 | 18 | 137 | 3.2 | 17.7 | 0.00 | 0.00 | 0.00 | 95 | 1015.2 |
| 20260905122559 | 18 | 122 | 8.0 | 17.7 | 0.00 | 0.00 | 0.00 | 95 | 1015.2 |
| 20260905122100 | 18 | 81 | 6.4 | 14.5 | 0.00 | 0.00 | 0.00 | 95 | 1015.2 |
| 20260905121559 | 18 | 93 | 4.8 | 14.5 | 0.00 | 0.00 | 0.00 | 95 | 1015.2 |
| 20260905121058 | 18 | 44 | 4.8 | 12.9 | 0.00 | 0.00 | 0.00 | 95 | 1015.2 |
| 20260905120557 | 18 | 117 | 3.2 | 16.1 | 0.00 | 0.00 | 0.00 | 95 | 1015.2 |
| 20260905120058 | 18 | 72 | 6.4 | 16.1 | 0.00 | 0.00 | 0.00 | 95 | 1015.2 |
| 20260905115557 | 18 | 95 | 6.4 | 14.5 | 0.00 | 0.00 | 0.00 | 95 | 1015.1 |
| 20260905115057 | 18 | 28 | 4.8 | 14.5 | 0.00 | 0.00 | 0.00 | 95 | 1015.0 |
| 20260905114607 | 18 | 115 | 6.4 | 19.3 | 0.00 | 0.00 | 0.00 | 95 | 1014.9 |
| 20260905114057 | 18 | 53 | 8.0 | 19.3 | 0.00 | 0.00 | 0.00 | 95 | 1015.0 |
| 20260905113556 | 18 | 80 | 8.0 | 16.1 | 0.00 | 0.00 | 0.00 | 95 | 1015.0 |
| 20260905113058 | 18 | 87 | 4.8 | 16.1 | 0.00 | 0.00 | 0.00 | 95 | 1015.1 |
| 20260905112556 | 18 | 104 | 8.0 | 16.1 | 0.00 | 0.00 | 0.00 | 95 | 1015.1 |
| 20260905112055 | 18 | 138 | 4.8 | 14.5 | 0.00 | 0.00 | 0.00 | 95 | 1015.1 |
| 20260905111625 | 18 | 114 | 4.8 | 16.1 | 0.00 | 0.00 | 0.00 | 95 | 1015.0 |
| 20260905111055 | 18 | 109 | 4.8 | 16.1 | 0.00 | 0.00 | 0.00 | 95 | 1014.9 |
| 20260905110554 | 18 | 153 | 4.8 | 16.1 | 0.00 | 0.00 | 0.00 | 95 | 1015.1 |
| 20260905110106 | 18 | 159 | 4.8 | 14.5 | 0.00 | 0.00 | 0.00 | 95 | 1015.0 |
| 20260905105555 | 18 | 153 | 4.8 | 14.5 | 0.00 | 0.00 | 0.00 | 95 | 1015.0 |
| 20260905105055 | 18 | 159 | 3.2 | 16.1 | 0.00 | 0.00 | 0.00 | 95 | 1015.1 |
| 20260905104615 | 18 | 128 | 4.8 | 17.7 | 0.00 | 0.00 | 0.00 | 95 | 1015.1 |
| 20260905104056 | 18 | 175 | 6.4 | 17.7 | 0.00 | 0.00 | 0.00 | 95 | 1014.9 |
| 20260905103554 | 17 | 132 | 3.2 | 14.5 | 0.00 | 0.00 | 0.00 | 95 | 1015.0 |
| 20260905103054 | 17 | 163 | 1.6 | 8.0 | 0.00 | 0.00 | 0.00 | 95 | 1015.0 |
| 20260905102553 | 17 | 140 | 3.2 | 6.4 | 0.00 | 0.00 | 0.00 | 95 | 1015.2 |
| 20260905102053 | 17 | 154 | 0.0 | 3.2 | 0.00 | 0.00 | 0.00 | 95 | 1015.2 |
| 20260905101554 | 17 | 184 | 0.0 | 0.0 | 0.00 | 0.00 | 0.00 | 95 | 1015.2 |
| 20260905101052 | 17 | 180 | 0.0 | 0.0 | 0.00 | 0.00 | 0.00 | 94 | 1015.0 |
| 20260905100553 | 17 | 180 | 0.0 | 4.8 | 0.00 | 0.00 | 0.00 | 94 | 1015.0 |
| 20260905100053 | 17 | 180 | 0.0 | 4.8 | 0.00 | 0.00 | 0.00 | 94 | 1014.8 |
| 20260905095552 | 17 | 180 | 1.6 | 4.8 | 0.00 | 0.00 | 0.00 | 94 | 1014.8 |
| 20260905095052 | 17 | 112 | 1.6 | 4.8 | 0.00 | 0.00 | 0.00 | 94 | 1014.4 |
| 20260905094704 | 17 | 164 | 0.0 | 3.2 | 0.00 | 0.00 | 0.00 | 94 | 1014.4 |
| 20260905094050 | 17 | 164 | 0.0 | 3.2 | 0.00 | 0.00 | 0.00 | 94 | 1014.5 |
| 20260905093550 | 17 | 164 | 0.0 | 4.8 | 0.00 | 0.00 | 0.00 | 94 | 1014.4 |
| 20260905093057 | 17 | 164 | 1.6 | 4.8 | 0.00 | 0.00 | 0.00 | 94 | 1014.3 |
| 20260905092551 | 18 | 107 | 0.0 | 6.4 | 0.00 | 0.00 | 0.00 | 94 | 1014.1 |
| 20260905092049 | 18 | 107 | 1.6 | 8.0 | 0.00 | 0.00 | 0.00 | 94 | 1014.0 |
| 20260905091555 | 18 | 94 | 3.2 | 12.9 | 0.00 | 0.00 | 0.00 | 94 | 1013.8 |
| 20260905091048 | 18 | 104 | 4.8 | 12.9 | 0.00 | 0.00 | 0.00 | 94 | 1013.9 |
| 20260905090548 | 18 | 102 | 1.6 | 12.9 | 0.00 | 0.00 | 0.00 | 94 | 1013.9 |
| 20260905090048 | 18 | 91 | 4.8 | 12.9 | 0.00 | 0.00 | 0.00 | 93 | 1013.8 |
| 20260905085548 | 18 | 111 | 3.2 | 12.9 | 0.00 | 0.00 | 0.00 | 93 | 1013.9 |
| 20260905085047 | 18 | 118 | 3.2 | 12.9 | 0.00 | 0.00 | 0.00 | 93 | 1013.8 |
| 20260905084558 | 18 | 80 | 3.2 | 11.3 | 0.00 | 0.00 | 0.00 | 93 | 1013.9 |
| 20260905084048 | 18 | 98 | 6.4 | 12.9 | 0.00 | 0.00 | 0.00 | 93 | 1014.1 |
| 20260905083545 | 18 | 84 | 4.8 | 12.9 | 0.00 | 0.00 | 0.00 | 93 | 1014.0 |
| 20260905083045 | 18 | 103 | 3.2 | 11.3 | 0.00 | 0.00 | 0.00 | 93 | 1014.1 |
| 20260905082545 | 18 | 107 | 3.2 | 12.9 | 0.00 | 0.00 | 0.00 | 93 | 1014.2 |
| 20260905082043 | 18 | 80 | 4.8 | 12.9 | 0.00 | 0.00 | 0.00 | 93 | 1014.3 |
| 20260905081543 | 18 | 90 | 3.2 | 12.9 | 0.00 | 0.00 | 0.00 | 93 | 1014.2 |
| 20260905081042 | 18 | 76 | 1.6 | 9.7 | 0.00 | 0.00 | 0.00 | 92 | 1014.3 |
| 20260905080541 | 18 | 133 | 1.6 | 9.7 | 0.00 | 0.00 | 0.00 | 92 | 1014.4 |
| 20260905080039 | 18 | 90 | 3.2 | 9.7 | 0.00 | 0.00 | 0.00 | 92 | 1014.5 |
| 20260905075538 | 18 | 136 | 3.2 | 8.0 | 0.00 | 0.00 | 0.00 | 92 | 1014.9 |
| 20260905075042 | 19 | 141 | 3.2 | 11.3 | 0.00 | 0.00 | 0.00 | 92 | 1014.9 |
| 20260905074538 | 19 | 99 | 1.6 | 12.9 | 0.00 | 0.00 | 0.00 | 92 | 1015.0 |
| 20260905074037 | 19 | 207 | 3.2 | 14.5 | 0.00 | 0.00 | 0.00 | 92 | 1014.8 |
| 20260905073536 | 19 | 94 | 4.8 | 14.5 | 0.00 | 0.00 | 0.00 | 92 | 1014.7 |
| 20260905073035 | 19 | 132 | 3.2 | 14.5 | 0.00 | 0.00 | 0.00 | 92 | 1014.6 |
| 20260905072534 | 19 | 94 | 4.8 | 12.9 | 0.00 | 0.00 | 0.00 | 92 | 1014.6 |
| 20260905072034 | 19 | 74 | 3.2 | 14.5 | 0.00 | 0.00 | 0.00 | 92 | 1014.7 |
| 20260905071537 | 19 | 70 | 6.4 | 14.5 | 0.00 | 0.00 | 0.00 | 92 | 1014.8 |
| 20260905071034 | 19 | 82 | 6.4 | 12.9 | 0.00 | 0.00 | 0.00 | 92 | 1014.8 |